sat.trackr.live / text

‹ back to catalog

UNKNOWN

NORAD 82642

UNKNOWN UNKNOWN UNKNOWN

§ Identity

Operator
Country
Launch date
Launch site
Launch vehicle
Mass (kg)
RCS (m²)

External: N2YO · Heavens-Above

§ Orbital elements

Epoch: 2026-09-12T05:01:06.570048Z

Period
102.26 min
Inclination
98.9644°
Eccentricity
0.0132411
Mean motion
14.08179255 rev/d
Perigee alt
769.7 km
Apogee alt
961.5 km
Semi-major
7,243.7 km
B*
4.4812e-4
RAAN
169.0572°
Arg perigee
190.4963°
Mean anomaly
169.3436°
Rev number
65,461

§ Raw data

UNKNOWN1 82642U          26255.20910382  .00000784  00000+0  44812-3 0  99972 82642  98.9644 169.0572 0132411 190.4963 169.3436 14.08179255654614

JSON: /api/v1/satellites/82642 · /tle

For live sub-satellite position, see the globe view (requires WebGL).

§ Visibility from observer

Set your observer location to see the next 7 days of passes ≥ 10°. The values pass through the URL so the page stays shareable.

No JS? Fill the form by hand. The geolocation button needs JavaScript.